Regional Weather Roundup
Issued by NWS

Home | Current Version | Previous Version | Graphics & Text | Print | Product List | Glossary Off
Versions: 1 2 3 4 5 6 7 8 9 10 11 12 13 14 15 16 17 18 19 20 21 22 23 24 25 26 27 28 29 30 31 32 33 34 35 36 37 38 39 40 41 42 43 44 45 46 47 48 49 50

000
ASUS43 KFSD 250202
RWRSD

WEATHER ROUNDUP FOR SOUTH DAKOTA
NATIONAL WEATHER SERVICE SIOUX FALLS SD
800 PM CST SAT JAN 24 2015

NOTE: "FAIR" INDICATES FEW OR NO CLOUDS BELOW 12,000 FEET WITH NO
SIGNIFICANT WEATHER AND/OR OBSTRUCTIONS TO VISIBILITY.


SDZ001>005-009-010-012>017-250300-
NORTHWEST AND NORTH CENTRAL SOUTH DAKOTA

CITY           SKY/WX    TMP DP  RH WIND       PRES   REMARKS
BUFFALO          N/A     39  31  72 NW31G39   29.85R
FAITH            N/A     42  32  67 NW35G43   29.81R
MOBRIDGE       MIX PCPN  36  33  89 N17G24    29.74R
$$

SDZ012>016-024>037-041>051-057-063-072>074-250300-
SOUTHWEST AND SOUTH CENTRAL SOUTH DAKOTA

CITY           SKY/WX    TMP DP  RH WIND       PRES   REMARKS
RAPID CTY ARPT PTCLDY    41  29  62 NW35G46   29.91R
PIERRE         MOCLDY    42  33  70 NW35G48   29.68R
CUSTER         CLEAR     34  21  59 NW15G33   29.94R WCI  24
ELLSWORTH AFB  PTCLDY    41  30  65 NW36G46   29.89R
PHILIP         PTCLDY    45  32  60 NW32G53   29.79R
PINE RIDGE     CLEAR     36  30  79 NW5       29.93R
WINNER         LGT RAIN  46  37  71 NW26G45   29.71R
$$

SDZ004>011-016>023-039-040-250300-
NORTHEAST SOUTH DAKOTA

CITY           SKY/WX    TMP DP  RH WIND       PRES   REMARKS
ABERDEEN       LGT SNOW  33  31  92 N15       29.67R FOG     WCI  23
WATERTOWN      LGT SNOW  33  31  92 N9        29.59R FOG     WCI  25
$$

SDZ017-020-022-023-036>040-048>070-250300-
SOUTHEAST SOUTH DAKOTA

CITY           SKY/WX    TMP DP  RH WIND       PRES   REMARKS
SIOUX FALLS    CLOUDY    37  34  89 CALM      29.55F
HURON          LGT RAIN  39  37  92 NW20      29.59R
MITCHELL       LGT RAIN  42  40  92 NW17G24   29.61R
YANKTON        CLOUDY    46  36  66 NW16G24   29.59R
$$

ABBREVIATIONS USED IN REMARKS
   TC - TEMPERATURE IN CELSIUS
  WCI - WIND CHILL INDEX
   HX - HEAT INDEX
  VSB - VISIBILITY




USA.gov is the U.S. government's official web portal to all federal, state and local government web resources and services.